Погода Остров Врангеля

Погода Остров Врангеля : погода сейчас, прогноз погоды и архив. Всё, что Вы хотите узнать о погоде Остров Врангеля!

Поиск расширенной информации на нашем сайте:

Другие новости

Новости СМИ2

Главная страница сайта

Новости сайта

02.10.2013

Напоминаем, что на нашем новом сайте вы можете получить высокодетализированные прогнозы погоды по пунктам России, СНГ и мира (включающие важные для авиации метеовеличины, такие как направление и скорость ветра, видимость, явления погоды, количество и форма облачности, нижняя и верхняя граница облачности), а также ознакомиться с разнообразными материалами по авиационной метеорологии и подборкой полезных ссылок на эту тему.

Сайт Метеоцентр.Азия посвящён разработке технологий оптимизации авиаметеорологического обслуживания, включая проектирование и перспективное создание нескольких автоматизированных авиаметеорологических систем:
- система выпуска высокодетальных прогностических карт явлений погоды для нижнего воздушного пространства по России и ближнему зарубежью;
- система верификации прогнозов TAF (выпускаемых синоптиками официальных АМСГ РФ и ближнего зарубежья) и AUTOTAF (выпускаемых сайтом Метеоцентр.Азия) - выявление ошибок, онлайн-сопоставление с фактической погодой METAR, автоматическое внесение коррективов в прогнозы при резком отклонении фактической погоды от прогноза, подсчёт оправдываемости прогнозов по элементам и в целом;
- система обработки, анализа и отображения авиаметеорологической информации для применения провайдерами метеорологической информации.


Погода Остров Врангеля - сегодня

Время (UTC), дата Ветер
(°,м/с) 
Видим.   Явления Облачность Т
(°С)
Тd
(°С)
f(%) Тe
(°С)
Pmin
(гПа)
dP
(гПа)
Po
(мм)
O2
(г/м3)
Тmin Tmax R s Состояние
почвы
06 24.05.17 360 (С) 7{11}  20000 м    6/5 600 м верхняя 
[Sc|Ci fib]
-6 -8.3 84 -11  1015.8  -0.4  760  314    -4.7       
09 24.05.17 340 (С) 9-11{11}  20000 м    3/3 600 м 
[Sc]
-6.7 -9.3 82 -13  1015.2  -0.7  759  315           
12 24.05.17 340 (С) 9-11{12}  20000 м    1/1 600 м 
[Sc]
-8 -10.2 84 -14  1014.8  -0.3  759  316           
15 24.05.17 330 (СЗ) 10-12{14}  20000 м    9/9 600 м 
[Sc]
-7.7 -10.2 82 -14  1013.5  -1.3  758  315           
18 24.05.17 340 (С) 13-15{15}  20000 м    9/8 600 м средняя 
[Sc|Ac trans]
-6.5 -9.6 79 -14  1012.3  -1.2  757  314  -8.8      мокрый или
старый снег
50-90% 
21 24.05.17 350 (С) 12-15{15}  20000 м    9/4 600 м средняя 
[Sc|Ac trans]
-5.7 -8.3 82 -13  1011.7  -0.6  757  312           
00 25.05.17 350 (С) 14-16{16}  20000 м    10/3 600 м средняя 
[Sc|Ac und]
-5.2 -8.2 79 -12  1010.7  -1  756  311           
03 25.05.17 340 (С) 14-17{17}  20000 м    10/4 600 м средняя 
[Sc|Ac und]
-5 -7.8 81 -12  1009.7  -1  755  311           
06 25.05.17 350 (С) 13-15{17}  20000 м    10/8 600 м средняя 
[Sc|Ac und]
-4.9 -7.4 83 -12  1009.6  -0.1  755  311    -4.7       
09 25.05.17 350 (С) 12-14{15}  20000 м    10/8 600 м средняя 
[Sc|Ac und]
-5.2 -7.1 86 -12  1009.8  0.2  755  311           
12 25.05.17 350 (С) 13-15{16}  20000 м    10/3 600 м средняя 
[Sc|Ac und]
-4.9 -7.5 82 -12  1009.2  -0.6  755  311           
15 25.05.17 320 (СЗ) 11-15{16}  20000 м    10/3 600 м средняя 
[Sc|Ac und]
-5 -7.1 85 -11  1008.7  -0.5  755  310           
18 25.05.17 320 (СЗ) 13-17{19}  20000 м    9/3 600 м средняя 
[Sc|Ac trans]
-4.4 -7.2 81 -11  1008.6  -0.1  754  310  -5.3      мокрый или
старый снег
50-90% 
21 25.05.17 330 (СЗ) 13-15{19}  20000 м    9/0 средняя, верхняя 
[Ac lent|Ci fib]
-4.6 -7.5 80 -11  1008.3  -0.3  754  310           
00 26.05.17 340 (С) 12-15{16}  20000 м    9/0 средняя, верхняя 
[Ac lent|Ci fib]
-3.1 -5.9 81 -9  1008.5  0.2  754  308           
03 26.05.17 340 (С) 14-17{19}  20000 м    10/3 600 м средняя, верхняя 
[Sc|Ac lent|Cs]
-2.9 -5 85 -10  1007.8  -0.7  754  308           
06 26.05.17 330 (СЗ) 12-17{18}  20000 м    10/3 600 м средняя, верхняя 
[Sc|Ac trans|Cs]
-2.1 -4.7 82 -8  1007.7  -0.1  754  307    -2.1       
09 26.05.17 330 (СЗ) 13-17{19}  20000 м    10/3 600 м средняя, верхняя 
[Sc|Ac trans|Cs]
-2.8 -5.5 82 -9  1007.3  -0.3  754  307           
12 26.05.17 310 (СЗ) 10-14{18}  20000 м    10/3 600 м средняя 
[Sc|Ac und]
-2.8 -4.9 85 -8  1007.9  0.5  754  307           
15 26.05.17 320 (СЗ) 9-12{15}  20000 м    10/5 600 м средняя 
[Sc|Ac und]
-2.6 -5.3 82 -8  1007.2  -0.7  753  307           
18 26.05.17 350 (С) 7{17}  20000 м    10/10 600 м 
[Sc]
-2.5 -5.1 82 -7  1007.3  0.2  754  307  -3.3      мокрый или
старый снег
50-90% 
21 26.05.17 310 (СЗ) 6{10}  20000 м    10/10 600 м 
[Sc]
-1.8 -4.8 80 -6  1007.2  -0.2  753  306           
00 27.05.17 200 (Ю) 3{07}  20000 м    10/10 600 м 
[Sc]
-1.3 -3.4 86 -3  1007.4  0.3  754  305           
03 27.05.17 210 (ЮЗ) 3{04}  20000 м    10/10 100 м 
[St]
-1.2 -3.4 85 -3  1007.5  0.1  754  305           
09 27.05.17 220 (ЮЗ) 2{04}  20000 м    10/10 300 м 
[St]
-1.7 -3.3 89 -3  1008  0.6  754  306           
Время (UTC), дата Ветер
(°,м/с) 
Видим.   Явления Облачность Т
(°С)
Тd
(°С)
f(%) Тe
(°С)
Pmin
(гПа)
dP
(гПа)
Po
(мм)
O2
(г/м3)
Тmin Tmax R s Состояние
почвы

Для получения пояснительной информации подведите курсор к названию столбца.

ПОГОДА Остров Врангеля - архив

Всё, что Вы хотите узнать о погоде Остров Врангеля - удобно и подробно!

Выберите нужную дату (начиная с 1 января 2015* года) и нажмите кнопку "Найти".
Будут отображены архивные сводки погоды по пункту Остров Врангеля, начиная с указанной даты.


Отображать данные в формате CSV (для использования в таблицах Excel)


Внимание! Наш архив погоды предназначен исключительно для личного некоммерческого использования в познавательных целях. Если Вам необходимы официальные справки о состоянии погоды (для производственных, юридических, коммерческих и т.п. целей), обращайтесь в органы Росгидромета.

*Примечание: данная дата относится к архиву по метеостанциям СССР (Россия, СНГ, Балтия).
Архив по метеостанциям Зарубежной Европы и Азии (кроме Китая) хранится 10 дней, по другим регионам земного шара (Китай, Африка, Америка, Австралия, Океания) - 1 день.

Остров Врангеля - район местоположения метеостанции


Название, широта, долгота, высота метеостанции:
Остров Врангеля 71°ш. -178.5°д. 5 м над ур. моря [Российская Федерация]

Дополнительная информация

В oтличие oт бoльшинства пoгoдных сайтoв мы публикуем пoдрoбную метеoинфoрмацию в детальнoм прoфессиoнальнoм фoрмате.

Характеристики температуры и влажнoсти вoздуха измеряются на высoте 2 м в тени вдали oт зданий и деревьев.
Скoрoсть ветра измеряется на высoте 10 м (на урoвне рoста челoвека скoрoсть ветра ниже в 1.5-2 раза). Если метеoстанция нахoдится в гoрoде или в лесу, тo скoрoсть ветра занижена на 2-4 м/с пo сравнению с oткрытым местoм. Скoрoсть ветра над акватoриями крупных рек и oзёр, а также на вершинах хoлмoв на 2-5 м/с выше, чем в oбычных услoвиях.
Атмoсфернoе давление в разных тoчках местнoсти мoжет значительнo oтличаться oт давления на метеoстанции, в зависимoсти oт услoвий рельефа (при пoдъёме на 10 м давление пoнижается примернo на 1 мм рт.ст.).